Location: La Pernelle
(49.6188°N, 1.2999°W)
Time: 09:11:33
(UTC+00:00)

SPOT 5 - Pass Details

Date: 12 June 2021
Orbit: 622 x 815 km, 98.2° (Epoch: 01 August)

Event Time Altitude Azimuth Distance (km) Brightness Sun altitude
Exits shadow 20:58:03 - 142° (SE) 2,593 5.0 -6.2°
Reaches altitude 10° 20:58:39 10° 141° (SE) 2,362 4.8 -6.2°
Maximum altitude 21:03:39 47° 68° (ENE) 1,019 3.5 -6.8°
Drops below altitude 10° 21:08:28 10° 356° (N) 2,278 6.4 -7.3°
Sets 21:10:46 0° 351° (N) 3,177 7.4 -7.5°
